Regional Weather Roundup
Issued by NWS Newport/Morehead, NC

Current Version | Previous Version | Graphics & Text | Print | Product List | Glossary Off
Versions: 1 2 3 4 5 6 7 8 9 10 11 12 13 14 15 16 17 18 19 20 21 22 23 24 25 26 27 28 29 30 31 32 33 34 35 36 37 38 39 40 41 42 43 44 45 46 47 48 49 50

000
ASUS42 KMHX 301125
RWRMHX
WEATHER ROUNDUP FOR EASTERN NORTH CAROLINA
NATIONAL WEATHER SERVICE NEWPORT/MOREHEAD CITY NC
700 AM EDT SAT APR 30 2016

NOTE: "FAIR" INDICATES FEW OR NO CLOUDS BELOW 12,000 FEET
WITH NO SIGNIFICANT WEATHER AND/OR OBSTRUCTIONS TO VISIBILITY

NCZ015>017-031-032-045>047-102-103-301200-
NORTH COAST

CITY           SKY/WX    TMP DP  RH WIND       PRES   REMARKS
EDENTON        CLOUDY    57  57 100 NE3       30.13R
ELIZABETH CITY CLOUDY    55  53  93 N10       30.12R
KITTY HAWK     CLOUDY    54  54  97 N7        30.10R
MANTEO         NOT AVBL

$$

NCZ045>047-081-094-103-104-301200-
CENTRAL COAST

CITY           SKY/WX    TMP DP  RH WIND       PRES   REMARKS
FRISCO         CLOUDY    58  54  86 NE9       30.10R
SWANQUARTER    NOT AVBL

$$

NCZ095-097-098-100-101-301200-
SOUTHERN COAST

CITY           SKY/WX    TMP DP  RH WIND       PRES   REMARKS
BEAUFORT       CLOUDY    60  56  86 N9        30.11R
CEDAR ISLAND   NOT AVBL
JACKSONVILLE   CLOUDY    62  58  86 NE10      30.09R
PINEY ISLAND   NOT AVBL
WILMINGTON     CLOUDY    60  59  96 NE7       30.07R


$$

NCZ011>013-027>030-043-044-078>080-089-090>093-098-301200-
COASTAL PLAIN

CITY           SKY/WX    TMP DP  RH WIND       PRES   REMARKS
AHOSKIE        CLOUDY    55  53  91 N3        30.14R
CLINTON        CLOUDY    61  60  97 E5        30.10R FOG
ELIZABETHTOWN  CLOUDY    62  60  94 CALM      30.09R FOG
GOLDSBORO      CLOUDY    59  59 100 NE9       30.09R
GREENVILLE     CLOUDY    57  55  94 E3        30.13R
HAVELOCK       CLOUDY    59  55  87 NE12      30.12
KENANSVILLE    CLOUDY    59  58  96 CALM      30.11R FOG
KINSTON        CLOUDY    57  57 100 E10       30.12R FOG
NEW BERN       CLOUDY    58  55  90 NE10      30.13R
RICHLANDS      CLOUDY    60  58  92 NE9       30.10R
ROCKY MOUNT    CLOUDY    57  55  93 NE5       30.11R
WASHINGTON     CLOUDY    56  53  92 E5        30.12R
WHITEVILLE     CLOUDY    63  61  94 NE5       30.07R FOG

$$

AMZ130-135-150-152-154-156-158-170-250-252-270-ANZ085-086-088-633-658-670-301200-
MARINE OBSERVATIONS

STATION/POSITION TIME  TEMP    WIND        PRES    WAVE   SWELL
                       AIR SEA DIR/SP/G            HT/PER HT/PER
                 (UTC) (F)     (DEG/KT/KT) (MB)    (FT/S) (FT/S)
CHESAPEAKE LIGHT 1100   52      30/ 15/ 16 1020.8
64 E VA BEACH    1050   51 53   10/ 14/ 16 1019.0    7/ 9   5/ 9
DUCK             1100   54 66   20/ 15/ 17 1019.1
2 E DUCK         1011      58                N/A     4/ 8   2/11
OREGON INLET     1100   55 63   10/ 11/ 16 1019.2
13E OREGON INLT  1100      54                N/A     5/11   5/11
HATTERAS CG      1100   59 69  360/ 17/ 21 1019.0
DIAMOND BUOY     1050   60 74   20/ 16/ 21 1018.9    5/ 8   2/ 8
CAPE LOOKOUT     1100   60      20/  9/ 11 1019.1
BEAUFORT LAB     1100   60 67   20/  8/ 11 1018.7
30 SE NEW RVR IN 1025      67                N/A     3/10
27 SE WRIGHTSVLE 1108   66 69   60/ 17/ 23 1017.2
5 SE WRIGHTSVLE  1108   66 68   70/ 16/ 19 1018.9
225 S CAPE HAT   1050   70 71   70/ 10/ 14 1016.8    3/11   2/11
41 SE CHARLESTON 1050   73 72  140/  4/  4 1015.6    2/ 9   2/ 9

$$




USA.gov is the U.S. government's official web portal to all federal, state and local government web resources and services.